Time,TemperatureF,DewpointF,PressureIn,WindDirection,WindDirectionDegrees,WindSpeedMPH,WindSpeedGustMPH,Humidity,HourlyPrecipIn,Conditions,Clouds,dailyrainin,SoftwareType,DateUTC
2013-05-12 00:01:00,58.2,57.6,29.70,WSW,256,6.0,20.0,98,0.10,,---,0.47,VWS V14.01,2013-05-12 04:01:00,
2013-05-12 00:16:00,57.5,56.9,29.72,SSW,209,5.0,18.0,98,0.13,,---,0.04,VWS V14.01,2013-05-12 04:16:00,
2013-05-12 00:31:00,57.5,56.9,29.71,SSW,198,7.0,18.0,98,0.17,,---,0.10,VWS V14.01,2013-05-12 04:31:00,
2013-05-12 00:46:00,57.6,57.0,29.69,SW,228,8.0,19.0,98,0.21,,---,0.16,VWS V14.01,2013-05-12 04:46:00,
2013-05-12 01:01:00,57.2,56.4,29.68,SSW,203,7.0,16.0,97,0.20,,---,0.17,VWS V14.01,2013-05-12 05:01:00,
2013-05-12 01:16:00,57.1,56.5,29.70,SW,231,5.0,19.0,98,0.17,,---,0.17,VWS V14.01,2013-05-12 05:16:00,
2013-05-12 01:31:00,57.0,56.4,29.69,SW,236,6.0,15.0,98,0.14,,---,0.18,VWS V14.01,2013-05-12 05:31:00,
2013-05-12 01:46:00,56.9,56.3,29.68,SW,225,5.0,14.0,98,0.08,,---,0.18,VWS V14.01,2013-05-12 05:46:00,
2013-05-12 02:01:00,56.5,55.7,29.68,SSW,201,8.0,12.0,97,0.02,,---,0.18,VWS V14.01,2013-05-12 06:01:00,
2013-05-12 02:16:00,56.3,55.8,29.67,SW,225,7.0,15.0,98,0.01,,---,0.18,VWS V14.01,2013-05-12 06:16:00,
2013-05-12 02:31:00,56.4,55.8,29.67,SSW,203,9.0,15.0,98,0.01,,---,0.18,VWS V14.01,2013-05-12 06:31:00,
2013-05-12 02:46:00,56.0,55.5,29.65,SW,223,5.0,18.0,98,0.00,,---,0.18,VWS V14.01,2013-05-12 06:46:00,
2013-05-12 03:01:00,55.9,55.3,29.66,SSW,208,8.0,17.0,98,0.00,,---,0.18,VWS V14.01,2013-05-12 07:01:00,
2013-05-12 03:16:00,55.1,54.5,29.65,SSW,209,4.0,15.0,98,0.00,,---,0.18,VWS V14.01,2013-05-12 07:16:00,
2013-05-12 03:31:00,54.1,53.3,29.67,SW,215,8.0,10.0,97,0.00,,---,0.18,VWS V14.01,2013-05-12 07:31:00,
2013-05-12 03:46:00,54.3,53.8,29.66,SSW,206,3.0,13.0,98,0.00,,---,0.18,VWS V14.01,2013-05-12 07:46:00,
2013-05-12 04:01:00,54.1,53.5,29.66,SSW,198,7.0,12.0,98,0.00,,---,0.18,VWS V14.01,2013-05-12 08:01:00,
2013-05-12 04:16:00,54.3,53.8,29.64,SSW,209,5.0,15.0,98,0.00,,---,0.18,VWS V14.01,2013-05-12 08:16:00,
2013-05-12 04:31:00,54.7,54.2,29.63,SSW,212,4.0,12.0,98,0.00,,---,0.18,VWS V14.01,2013-05-12 08:31:00,
2013-05-12 04:46:00,53.8,53.2,29.64,SSW,199,8.0,10.0,98,0.00,,---,0.18,VWS V14.01,2013-05-12 08:46:00,
2013-05-12 05:01:00,53.1,52.5,29.65,SSW,209,1.0,11.0,98,0.00,,---,0.18,VWS V14.01,2013-05-12 09:01:00,
2013-05-12 05:16:00,53.3,52.8,29.64,South,189,6.0,8.0,98,0.00,,---,0.18,VWS V14.01,2013-05-12 09:16:00,
2013-05-12 05:31:00,53.6,53.0,29.64,SSW,200,3.0,10.0,98,0.00,,---,0.18,VWS V14.01,2013-05-12 09:31:00,
2013-05-12 05:46:00,54.7,54.2,29.65,SSW,213,5.0,16.0,98,0.00,,---,0.18,VWS V14.01,2013-05-12 09:46:00,
2013-05-12 06:01:00,54.4,53.8,29.65,SSW,199,7.0,14.0,98,0.01,,---,0.19,VWS V14.01,2013-05-12 10:01:00,
2013-05-12 06:16:00,54.1,53.5,29.65,South,184,8.0,12.0,98,0.03,,---,0.21,VWS V14.01,2013-05-12 10:16:00,
2013-05-12 06:31:00,54.2,53.7,29.64,SSW,202,6.0,9.0,98,0.04,,---,0.22,VWS V14.01,2013-05-12 10:31:00,
2013-05-12 06:46:00,54.2,53.7,29.64,SSW,200,4.0,9.0,98,0.04,,---,0.22,VWS V14.01,2013-05-12 10:46:00,
2013-05-12 07:01:00,56.4,55.8,29.63,SSW,194,6.0,11.0,98,0.05,,---,0.23,VWS V14.01,2013-05-12 11:01:00,
2013-05-12 07:16:00,55.2,54.7,29.63,South,182,5.0,9.0,98,0.04,,---,0.23,VWS V14.01,2013-05-12 11:16:00,
2013-05-12 07:31:00,54.8,54.2,29.62,SSW,196,5.0,8.0,98,0.03,,---,0.24,VWS V14.01,2013-05-12 11:31:00,
2013-05-12 07:46:00,56.3,55.8,29.61,SW,216,3.0,9.0,98,0.03,,---,0.25,VWS V14.01,2013-05-12 11:46:00,
2013-05-12 08:01:00,57.6,57.0,29.60,SSW,209,7.0,11.0,98,0.04,,---,0.26,VWS V14.01,2013-05-12 12:01:00,
2013-05-12 08:16:00,57.7,57.1,29.61,WSW,239,11.0,12.0,98,0.05,,---,0.28,VWS V14.01,2013-05-12 12:16:00,
2013-05-12 08:31:00,57.3,56.7,29.61,SW,215,6.0,14.0,98,0.07,,---,0.30,VWS V14.01,2013-05-12 12:31:00,
2013-05-12 08:46:00,57.2,56.6,29.61,SSW,206,9.0,13.0,98,0.07,,---,0.31,VWS V14.01,2013-05-12 12:46:00,
2013-05-12 09:01:00,56.7,56.1,29.60,West,269,3.0,14.0,98,0.07,,---,0.32,VWS V14.01,2013-05-12 13:01:00,
2013-05-12 09:16:00,56.9,56.3,29.59,SW,216,6.0,9.0,98,0.07,,---,0.33,VWS V14.01,2013-05-12 13:16:00,
2013-05-12 09:31:00,57.1,56.5,29.59,SW,235,11.0,11.0,98,0.05,,---,0.33,VWS V14.01,2013-05-12 13:31:00,
2013-05-12 09:46:00,56.7,56.1,29.60,WSW,241,9.0,11.0,98,0.03,,---,0.33,VWS V14.01,2013-05-12 13:46:00,
2013-05-12 10:01:00,56.3,55.8,29.60,SW,217,4.0,12.0,98,0.02,,---,0.33,VWS V14.01,2013-05-12 14:01:00,
2013-05-12 10:16:00,56.8,56.2,29.58,SSW,211,5.0,9.0,98,0.01,,---,0.33,VWS V14.01,2013-05-12 14:16:00,
2013-05-12 10:31:00,56.0,55.5,29.60,WSW,246,12.0,15.0,98,0.00,,---,0.33,VWS V14.01,2013-05-12 14:31:00,
2013-05-12 10:46:00,55.9,55.3,29.60,West,270,5.0,15.0,98,0.00,,---,0.33,VWS V14.01,2013-05-12 14:46:00,
2013-05-12 11:01:00,56.6,56.0,29.60,WSW,238,3.0,11.0,98,0.00,,---,0.33,VWS V14.01,2013-05-12 15:01:00,
2013-05-12 11:16:00,57.2,56.6,29.58,SW,227,7.0,11.0,98,0.00,,---,0.33,VWS V14.01,2013-05-12 15:16:00,
2013-05-12 11:31:00,57.0,56.4,29.60,WSW,241,7.0,12.0,98,0.00,,---,0.33,VWS V14.01,2013-05-12 15:31:00,
2013-05-12 11:46:00,57.0,56.4,29.60,SSW,200,7.0,11.0,98,0.00,,---,0.33,VWS V14.01,2013-05-12 15:46:00,
2013-05-12 12:01:00,57.3,56.7,29.60,WSW,254,3.0,12.0,98,0.00,,---,0.33,VWS V14.01,2013-05-12 16:01:00,
2013-05-12 12:16:00,57.5,56.9,29.60,SW,217,5.0,13.0,98,0.00,,---,0.33,VWS V14.01,2013-05-12 16:16:00,
2013-05-12 12:31:00,58.0,57.4,29.60,SW,223,4.0,11.0,98,0.00,,---,0.33,VWS V14.01,2013-05-12 16:31:00,
2013-05-12 12:46:00,58.2,57.6,29.60,SSW,206,7.0,11.0,98,0.00,,---,0.33,VWS V14.01,2013-05-12 16:46:00,
2013-05-12 13:01:00,58.9,58.3,29.60,SW,217,4.0,10.0,98,0.00,,---,0.33,VWS V14.01,2013-05-12 17:01:00,
2013-05-12 13:16:00,58.3,57.7,29.59,SSW,203,5.0,12.0,98,0.00,,---,0.33,VWS V14.01,2013-05-12 17:16:00,
2013-05-12 13:31:00,58.2,57.4,29.59,SSW,202,5.0,16.0,97,0.00,,---,0.33,VWS V14.01,2013-05-12 17:31:00,
2013-05-12 13:46:00,57.7,56.9,29.60,SW,231,4.0,15.0,97,0.00,,---,0.33,VWS V14.01,2013-05-12 17:46:00,
2013-05-12 14:01:00,57.9,57.1,29.60,SW,225,7.0,16.0,97,0.00,,---,0.33,VWS V14.01,2013-05-12 18:01:00,
2013-05-12 14:16:00,57.8,57.0,29.59,WSW,243,7.0,14.0,97,0.00,,---,0.33,VWS V14.01,2013-05-12 18:16:00,
2013-05-12 14:31:00,58.0,56.9,29.58,SSW,205,4.0,14.0,96,0.00,,---,0.33,VWS V14.01,2013-05-12 18:31:00,
2013-05-12 14:46:00,57.7,56.6,29.58,SSW,209,9.0,14.0,96,0.00,,---,0.33,VWS V14.01,2013-05-12 18:46:00,
2013-05-12 15:01:00,57.5,56.4,29.58,WSW,238,10.0,15.0,96,0.00,,---,0.33,VWS V14.01,2013-05-12 19:01:00,
2013-05-12 15:16:00,57.6,56.2,29.58,WSW,242,7.0,14.0,95,0.00,,---,0.33,VWS V14.01,2013-05-12 19:16:00,
2013-05-12 15:31:00,57.2,55.8,29.58,WSW,242,11.0,13.0,95,0.00,,---,0.33,VWS V14.01,2013-05-12 19:31:00,
2013-05-12 15:46:00,57.2,55.5,29.58,SW,215,8.0,16.0,94,0.00,,---,0.33,VWS V14.01,2013-05-12 19:46:00,
2013-05-12 16:01:00,57.5,55.5,29.57,WSW,244,10.0,16.0,93,0.00,,---,0.33,VWS V14.01,2013-05-12 20:01:00,
2013-05-12 16:16:00,59.6,56.4,29.57,SW,219,7.0,20.0,89,0.00,,---,0.33,VWS V14.01,2013-05-12 20:16:00,
2013-05-12 16:31:00,60.9,55.7,29.58,WSW,240,9.0,19.0,83,0.00,,---,0.33,VWS V14.01,2013-05-12 20:31:00,
2013-05-12 16:46:00,60.8,55.6,29.58,WSW,243,9.0,19.0,83,0.00,,---,0.33,VWS V14.01,2013-05-12 20:46:00,
2013-05-12 17:01:00,60.6,55.4,29.58,WSW,239,10.0,17.0,83,0.00,,---,0.33,VWS V14.01,2013-05-12 21:01:00,
2013-05-12 17:16:00,60.4,55.2,29.58,SSW,194,8.0,18.0,83,0.00,,---,0.33,VWS V14.01,2013-05-12 21:16:00,
2013-05-12 17:31:00,60.0,54.5,29.59,SW,217,9.0,17.0,82,0.00,,---,0.33,VWS V14.01,2013-05-12 21:31:00,
2013-05-12 17:46:00,59.7,54.2,29.59,SSW,192,6.0,17.0,82,0.00,,---,0.33,VWS V14.01,2013-05-12 21:46:00,
2013-05-12 18:01:00,59.3,53.8,29.59,WSW,240,12.0,18.0,82,0.00,,---,0.33,VWS V14.01,2013-05-12 22:01:00,
2013-05-12 18:16:00,59.3,53.8,29.59,SW,221,5.0,15.0,82,0.00,,---,0.33,VWS V14.01,2013-05-12 22:16:00,
2013-05-12 18:31:00,59.0,53.5,29.60,SW,235,10.0,15.0,82,0.00,,---,0.33,VWS V14.01,2013-05-12 22:31:00,
2013-05-12 18:46:00,58.5,53.4,29.60,SSW,205,6.0,17.0,83,0.00,,---,0.33,VWS V14.01,2013-05-12 22:46:00,
2013-05-12 19:01:00,58.0,53.2,29.61,WSW,239,9.0,18.0,84,0.00,,---,0.33,VWS V14.01,2013-05-12 23:01:00,
2013-05-12 19:16:00,58.0,52.9,29.61,SSW,204,7.0,16.0,83,0.00,,---,0.33,VWS V14.01,2013-05-12 23:16:00,
2013-05-12 19:31:00,57.7,52.2,29.62,SW,234,6.0,21.0,82,0.00,,---,0.33,VWS V14.01,2013-05-12 23:31:00,
2013-05-12 19:46:00,57.0,52.5,29.63,WSW,252,12.0,21.0,85,0.00,,---,0.33,VWS V14.01,2013-05-12 23:46:00,
2013-05-12 20:01:00,56.8,52.7,29.64,WSW,258,9.0,22.0,86,0.00,,---,0.33,VWS V14.01,2013-05-13 00:01:00,
2013-05-12 20:16:00,56.6,52.2,29.64,WSW,240,10.0,22.0,85,0.00,,---,0.33,VWS V14.01,2013-05-13 00:16:00,
2013-05-12 20:31:00,56.4,52.0,29.65,West,265,14.0,21.0,85,0.00,,---,0.33,VWS V14.01,2013-05-13 00:31:00,
2013-05-12 20:46:00,56.3,52.2,29.66,West,267,14.0,20.0,86,0.00,,---,0.33,VWS V14.01,2013-05-13 00:46:00,
2013-05-12 21:01:00,56.9,53.1,29.66,WSW,245,8.0,18.0,87,0.00,,---,0.33,VWS V14.01,2013-05-13 01:01:00,
2013-05-12 21:16:00,57.1,53.6,29.67,West,274,7.0,20.0,88,0.00,,---,0.33,VWS V14.01,2013-05-13 01:16:00,
2013-05-12 21:31:00,56.6,52.8,29.68,WNW,294,4.0,12.0,87,0.00,,---,0.33,VWS V14.01,2013-05-13 01:31:00,
2013-05-12 21:46:00,55.4,51.6,29.69,West,281,3.0,7.0,87,0.00,,---,0.33,VWS V14.01,2013-05-13 01:46:00,
2013-05-12 22:01:00,54.9,50.8,29.69,WNW,298,3.0,7.0,86,0.00,,---,0.33,VWS V14.01,2013-05-13 02:01:00,
2013-05-12 22:16:00,55.1,48.7,29.70,NW,310,4.0,8.0,79,0.00,,---,0.33,VWS V14.01,2013-05-13 02:16:00,
2013-05-12 22:31:00,55.6,46.7,29.70,NW,317,5.0,10.0,72,0.00,,---,0.33,VWS V14.01,2013-05-13 02:31:00,
2013-05-12 22:46:00,55.3,45.7,29.72,WNW,299,6.0,10.0,70,0.00,,---,0.33,VWS V14.01,2013-05-13 02:46:00,
2013-05-12 23:01:00,55.3,44.2,29.73,NW,317,3.0,12.0,66,0.00,,---,0.33,VWS V14.01,2013-05-13 03:01:00,
2013-05-12 23:16:00,54.8,43.7,29.74,NNW,327,3.0,9.0,66,0.00,,---,0.33,VWS V14.01,2013-05-13 03:16:00,
2013-05-12 23:31:00,54.4,43.3,29.74,WNW,293,3.0,8.0,66,0.00,,---,0.33,VWS V14.01,2013-05-13 03:31:00,
2013-05-12 23:46:00,54.4,40.8,29.75,WNW,303,4.0,9.0,60,0.00,,---,0.33,VWS V14.01,2013-05-13 03:46:00,